This is the latest recevied weather packets stored in our database for station/object G1OCN-WX. If no packets are shown the sender has not sent any weather packets the latest 10 day(s).
| Time | Temp. | Humidity | Pressure | Rain* | Wind** | Luminosity | Snow |
|---|---|---|---|---|---|---|---|
| 1787513645 | 17.78° C | 65% | 1023 hPa | 0 mm | - | - | - |
| 1787512744 | 17.78° C | 65% | 1023 hPa | 0 mm | - | - | - |
| 1787511844 | 17.78° C | 64% | 1023 hPa | 0 mm | - | - | - |
| 1787510944 | 18.33° C | 64% | 1022.9 hPa | 0 mm | - | - | - |
| 1787510044 | 18.33° C | 65% | 1022.9 hPa | 0 mm | - | - | - |
| 1787509144 | 18.33° C | 64% | 1022.9 hPa | 0 mm | - | - | - |
| 1787508244 | 18.33° C | 63% | 1023 hPa | 0 mm | - | - | - |
| 1787507344 | 18.89° C | 65% | 1023.2 hPa | 0 mm | - | - | - |
| 1787506444 | 18.89° C | 63% | 1023.3 hPa | 0 mm | - | - | - |
| 1787505544 | 18.89° C | 64% | 1023.4 hPa | 0 mm | - | - | - |
| 1787504644 | 18.89° C | 63% | 1023.4 hPa | 0 mm | - | - | - |
| 1787503744 | 18.33° C | 64% | 1023.5 hPa | 0 mm | - | - | - |
| 1787502844 | 18.89° C | 64% | 1023.6 hPa | 0 mm | - | - | - |
| 1787501944 | 19.44° C | 63% | 1023.7 hPa | 0 mm | - | - | - |
| 1787501044 | 18.89° C | 63% | 1023.8 hPa | 0 mm | - | - | - |
| 1787500144 | 18.89° C | 62% | 1023.8 hPa | 0 mm | - | - | - |
| 1787499244 | 19.44° C | 62% | 1023.8 hPa | 0 mm | - | - | - |
| 1787498344 | 18.89° C | 62% | 1024.2 hPa | 0 mm | - | - | - |
| 1787497443 | 19.44° C | 62% | 1024.2 hPa | 0 mm | - | - | - |
| 1787496543 | 19.44° C | 61% | 1024.4 hPa | 0 mm | - | - | - |
| 1787495643 | 19.44° C | 60% | 1024.5 hPa | 0 mm | - | - | - |
| 1787494743 | 19.44° C | 62% | 1024.6 hPa | 0 mm | - | - | - |
| 1787493813 | 19.44° C | 61% | 1024.8 hPa | 0 mm | - | - | - |
| 1787492913 | 20° C | 60% | 1024.9 hPa | 0 mm | - | - | - |
| 1787492013 | 20° C | 60% | 1025 hPa | 0 mm | - | - | - |
* Rain latest hour (hover to see other rain measurements)
** Current wind speed in m/s (hover to see current wind gust speed)